Time,TemperatureF,DewpointF,PressureIn,WindDirection,WindDirectionDegrees,WindSpeedMPH,WindSpeedGustMPH,Humidity,HourlyPrecipIn,Conditions,Clouds,dailyrainin,SoftwareType,DateUTC
2013-01-25 00:09:00,11.3,2.2,30.17,SW,225,2.2,-999.0,66,-99.99,,,0.00,Acu-Link.com,2013-01-25 05:09:00,
2013-01-25 00:24:00,11.5,1.7,30.17,South,180,0.0,-999.0,64,-99.99,,,0.00,Acu-Link.com,2013-01-25 05:24:00,
2013-01-25 00:39:00,10.4,2.0,30.17,West,270,0.0,-999.0,68,-99.99,,,0.00,Acu-Link.com,2013-01-25 05:39:00,
2013-01-25 00:55:00,10.0,2.5,30.17,WNW,292,0.0,-999.0,71,-99.99,,,0.00,Acu-Link.com,2013-01-25 05:55:00,
2013-01-25 01:10:00,10.6,3.1,30.18,South,180,1.7,-999.0,71,-99.99,,,0.00,Acu-Link.com,2013-01-25 06:10:00,
2013-01-25 01:25:00,9.9,2.4,30.17,West,270,0.0,-999.0,71,-99.99,,,0.00,Acu-Link.com,2013-01-25 06:25:00,
2013-01-25 01:41:00,9.9,2.7,30.17,WNW,292,0.0,-999.0,72,-99.99,,,0.00,Acu-Link.com,2013-01-25 06:41:00,
2013-01-25 01:56:00,9.5,2.9,30.17,WSW,247,3.7,-999.0,74,-99.99,,,0.00,Acu-Link.com,2013-01-25 06:56:00,
2013-01-25 02:11:00,9.5,2.9,30.16,WSW,247,2.2,-999.0,74,-99.99,,,0.00,Acu-Link.com,2013-01-25 07:11:00,
2013-01-25 02:26:00,10.2,3.3,30.17,West,270,4.2,-999.0,73,-99.99,,,0.00,Acu-Link.com,2013-01-25 07:26:00,
2013-01-25 02:42:00,9.9,3.0,30.18,WSW,247,0.0,-999.0,73,-99.99,,,0.00,Acu-Link.com,2013-01-25 07:42:00,
2013-01-25 02:57:00,10.0,3.7,30.18,West,270,0.0,-999.0,75,-99.99,,,0.00,Acu-Link.com,2013-01-25 07:57:00,
2013-01-25 03:12:00,10.0,3.7,30.19,West,270,0.0,-999.0,75,-99.99,,,0.00,Acu-Link.com,2013-01-25 08:12:00,
2013-01-25 03:28:00,9.7,3.7,30.16,West,270,0.0,-999.0,76,-99.99,,,0.00,Acu-Link.com,2013-01-25 08:28:00,
2013-01-25 03:43:00,10.6,4.3,30.16,ENE,67,0.0,-999.0,75,-99.99,,,0.00,Acu-Link.com,2013-01-25 08:43:00,
2013-01-25 03:58:00,9.5,3.8,30.17,SSW,202,0.0,-999.0,77,-99.99,,,0.00,Acu-Link.com,2013-01-25 08:58:00,
2013-01-25 04:16:00,9.3,3.9,30.16,SW,225,0.0,-999.0,78,-99.99,,,0.00,Acu-Link.com,2013-01-25 09:16:00,
2013-01-25 04:31:00,9.0,4.4,30.17,West,270,0.0,-999.0,81,-99.99,,,0.00,Acu-Link.com,2013-01-25 09:31:00,
2013-01-25 04:46:00,8.8,5.0,30.17,West,270,0.0,-999.0,84,-99.99,,,0.00,Acu-Link.com,2013-01-25 09:46:00,
2013-01-25 05:01:00,8.4,5.3,30.17,South,180,0.0,-999.0,87,-99.99,,,0.00,Acu-Link.com,2013-01-25 10:01:00,
2013-01-25 05:16:00,8.6,4.8,30.18,ESE,112,0.0,-999.0,84,-99.99,,,0.00,Acu-Link.com,2013-01-25 10:16:00,
2013-01-25 05:32:00,7.2,3.7,30.18,ESE,112,0.0,-999.0,85,-99.99,,,0.00,Acu-Link.com,2013-01-25 10:32:00,
2013-01-25 05:47:00,10.4,7.3,30.18,WSW,247,0.0,-999.0,87,-99.99,,,0.00,Acu-Link.com,2013-01-25 10:47:00,
2013-01-25 06:02:00,9.3,5.2,30.19,East,90,0.0,-999.0,83,-99.99,,,0.00,Acu-Link.com,2013-01-25 11:02:00,
2013-01-25 06:17:00,10.6,6.7,30.18,SE,135,0.0,-999.0,84,-99.99,,,0.00,Acu-Link.com,2013-01-25 11:17:00,
2013-01-25 06:33:00,10.9,5.4,30.20,North,0,0.0,-999.0,78,-99.99,,,0.00,Acu-Link.com,2013-01-25 11:33:00,
2013-01-25 06:48:00,8.2,4.9,30.20,WSW,247,0.0,-999.0,86,-99.99,,,0.00,Acu-Link.com,2013-01-25 11:48:00,
2013-01-25 07:03:00,7.5,5.0,30.21,WSW,247,0.0,-999.0,89,-99.99,,,0.00,Acu-Link.com,2013-01-25 12:03:00,
2013-01-25 07:19:00,7.5,5.2,30.20,West,270,0.0,-999.0,90,-99.99,,,0.00,Acu-Link.com,2013-01-25 12:19:00,
2013-01-25 07:34:00,8.8,5.7,30.19,West,270,0.0,-999.0,87,-99.99,,,0.00,Acu-Link.com,2013-01-25 12:34:00,
2013-01-25 07:49:00,9.5,5.7,30.20,West,270,0.0,-999.0,84,-99.99,,,0.00,Acu-Link.com,2013-01-25 12:49:00,
2013-01-25 08:05:00,10.6,6.5,30.19,West,270,0.0,-999.0,83,-99.99,,,0.00,Acu-Link.com,2013-01-25 13:05:00,
2013-01-25 08:20:00,11.3,6.6,30.19,SW,225,0.0,-999.0,81,-99.99,,,0.00,Acu-Link.com,2013-01-25 13:20:00,
2013-01-25 08:35:00,11.7,6.7,30.20,NW,315,0.0,-999.0,80,-99.99,,,0.00,Acu-Link.com,2013-01-25 13:35:00,
2013-01-25 08:50:00,12.0,6.5,30.19,West,270,1.7,-999.0,78,-99.99,,,0.00,Acu-Link.com,2013-01-25 13:50:00,
2013-01-25 09:06:00,13.1,6.4,30.19,West,270,0.0,-999.0,74,-99.99,,,0.00,Acu-Link.com,2013-01-25 14:06:00,
2013-01-25 09:21:00,13.8,6.5,30.20,SW,225,2.2,-999.0,72,-99.99,,,0.00,Acu-Link.com,2013-01-25 14:21:00,
2013-01-25 09:36:00,14.4,6.4,30.20,West,270,1.7,-999.0,70,-99.99,,,0.00,Acu-Link.com,2013-01-25 14:36:00,
2013-01-25 09:52:00,14.4,5.8,30.20,West,270,2.7,-999.0,68,-99.99,,,0.00,Acu-Link.com,2013-01-25 14:52:00,
2013-01-25 10:07:00,15.1,5.5,30.21,WNW,292,2.2,-999.0,65,-99.99,,,0.00,Acu-Link.com,2013-01-25 15:07:00,
2013-01-25 10:22:00,15.6,5.6,30.22,WSW,247,1.1,-999.0,64,-99.99,,,0.00,Acu-Link.com,2013-01-25 15:22:00,
2013-01-25 10:38:00,16.3,5.6,30.21,West,270,1.7,-999.0,62,-99.99,,,0.00,Acu-Link.com,2013-01-25 15:38:00,
2013-01-25 10:53:00,18.3,7.5,30.19,SSW,202,1.1,-999.0,62,-99.99,,,0.00,Acu-Link.com,2013-01-25 15:53:00,
2013-01-25 11:08:00,19.0,6.7,30.17,SW,225,1.7,-999.0,58,-99.99,,,0.00,Acu-Link.com,2013-01-25 16:08:00,
2013-01-25 11:23:00,18.9,5.0,30.17,West,270,0.0,-999.0,54,-99.99,,,0.00,Acu-Link.com,2013-01-25 16:23:00,
2013-01-25 11:39:00,20.7,6.3,30.17,WSW,247,2.2,-999.0,53,-99.99,,,0.00,Acu-Link.com,2013-01-25 16:39:00,
2013-01-25 11:54:00,19.4,4.3,30.13,WSW,247,1.1,-999.0,51,-99.99,,,0.00,Acu-Link.com,2013-01-25 16:54:00,
2013-01-25 12:09:00,20.1,4.5,30.12,NNE,22,1.7,-999.0,50,-99.99,,,0.00,Acu-Link.com,2013-01-25 17:09:00,
2013-01-25 12:25:00,20.8,5.1,30.13,SW,225,1.7,-999.0,50,-99.99,,,0.00,Acu-Link.com,2013-01-25 17:25:00,
2013-01-25 12:40:00,20.1,3.6,30.10,WSW,247,1.1,-999.0,48,-99.99,,,0.00,Acu-Link.com,2013-01-25 17:40:00,
2013-01-25 12:55:00,21.0,4.4,30.09,West,270,1.7,-999.0,48,-99.99,,,0.00,Acu-Link.com,2013-01-25 17:55:00,
2013-01-25 13:11:00,21.4,4.8,30.09,West,270,3.2,-999.0,48,-99.99,,,0.00,Acu-Link.com,2013-01-25 18:11:00,
2013-01-25 13:26:00,22.1,4.0,30.09,WSW,247,1.7,-999.0,45,-99.99,,,0.00,Acu-Link.com,2013-01-25 18:26:00,
2013-01-25 13:41:00,23.4,4.2,30.07,NW,315,0.0,-999.0,43,-99.99,,,0.00,Acu-Link.com,2013-01-25 18:41:00,
2013-01-25 13:56:00,22.8,3.2,30.06,SW,225,1.7,-999.0,42,-99.99,,,0.00,Acu-Link.com,2013-01-25 18:56:00,
2013-01-25 14:12:00,23.5,3.8,30.06,West,270,0.0,-999.0,42,-99.99,,,0.00,Acu-Link.com,2013-01-25 19:12:00,
2013-01-25 14:27:00,25.2,3.2,30.04,SSE,157,0.0,-999.0,38,-99.99,,,0.00,Acu-Link.com,2013-01-25 19:27:00,
2013-01-25 14:42:00,25.7,5.3,30.05,SW,225,0.0,-999.0,41,-99.99,,,0.00,Acu-Link.com,2013-01-25 19:42:00,
2013-01-25 14:58:00,25.5,4.0,30.05,WSW,247,0.0,-999.0,39,-99.99,,,0.00,Acu-Link.com,2013-01-25 19:58:00,
2013-01-25 15:13:00,24.1,2.2,30.04,ENE,67,0.0,-999.0,38,-99.99,,,0.00,Acu-Link.com,2013-01-25 20:13:00,
2013-01-25 15:28:00,25.5,3.5,30.03,SSW,202,0.0,-999.0,38,-99.99,,,0.00,Acu-Link.com,2013-01-25 20:28:00,
2013-01-25 15:44:00,24.8,3.4,30.04,NNE,22,0.0,-999.0,39,-99.99,,,0.00,Acu-Link.com,2013-01-25 20:44:00,
2013-01-25 15:59:00,24.8,3.9,30.03,WSW,247,0.0,-999.0,40,-99.99,,,0.00,Acu-Link.com,2013-01-25 20:59:00,
2013-01-25 16:14:00,25.2,4.3,30.03,ESE,112,0.0,-999.0,40,-99.99,,,0.00,Acu-Link.com,2013-01-25 21:14:00,
2013-01-25 16:29:00,25.0,4.1,30.03,SSW,202,0.0,-999.0,40,-99.99,,,0.00,Acu-Link.com,2013-01-25 21:29:00,
2013-01-25 16:45:00,25.7,7.3,30.01,SE,135,0.0,-999.0,45,-99.99,,,0.00,Acu-Link.com,2013-01-25 21:45:00,
2013-01-25 17:00:00,24.8,6.5,29.99,South,180,0.0,-999.0,45,-99.99,,,0.00,Acu-Link.com,2013-01-25 22:00:00,
2013-01-25 17:15:00,23.0,10.5,30.01,SSE,157,0.0,-999.0,58,-99.99,,,0.00,Acu-Link.com,2013-01-25 22:15:00,
2013-01-25 17:31:00,22.8,10.3,30.00,SSW,202,1.1,-999.0,58,-99.99,,,0.00,Acu-Link.com,2013-01-25 22:31:00,
2013-01-25 17:46:00,22.6,9.3,29.98,SSW,202,0.0,-999.0,56,-99.99,,,0.00,Acu-Link.com,2013-01-25 22:46:00,
2013-01-25 18:01:00,22.3,6.5,29.99,SSW,202,0.0,-999.0,50,-99.99,,,0.00,Acu-Link.com,2013-01-25 23:01:00,
2013-01-25 18:17:00,22.1,5.4,29.97,SW,225,0.0,-999.0,48,-99.99,,,0.00,Acu-Link.com,2013-01-25 23:17:00,
2013-01-25 18:32:00,20.8,10.6,29.98,WSW,247,1.7,-999.0,64,-99.99,,,0.00,Acu-Link.com,2013-01-25 23:32:00,
2013-01-25 18:47:00,20.3,16.5,29.95,SSW,202,1.1,-999.0,85,-99.99,,,0.00,Acu-Link.com,2013-01-25 23:47:00,
2013-01-25 19:02:00,19.6,17.2,29.95,SSW,202,0.0,-999.0,90,-99.99,,,0.00,Acu-Link.com,2013-01-26 00:02:00,
2013-01-25 19:18:00,19.4,18.9,29.94,WSW,247,0.0,-999.0,98,-99.99,,,0.00,Acu-Link.com,2013-01-26 00:18:00,
2013-01-25 19:33:00,19.8,19.3,29.94,SW,225,0.0,-999.0,98,-99.99,,,0.00,Acu-Link.com,2013-01-26 00:33:00,
2013-01-25 19:48:00,19.4,18.9,29.94,WSW,247,0.0,-999.0,98,-99.99,,,0.00,Acu-Link.com,2013-01-26 00:48:00,
2013-01-25 20:04:00,19.0,18.5,29.94,SSW,202,0.0,-999.0,98,-99.99,,,0.00,Acu-Link.com,2013-01-26 01:04:00,
2013-01-25 20:19:00,20.3,19.8,29.93,South,180,0.0,-999.0,98,-99.99,,,0.00,Acu-Link.com,2013-01-26 01:19:00,
2013-01-25 20:34:00,19.2,18.7,29.93,SW,225,0.0,-999.0,98,-99.99,,,0.00,Acu-Link.com,2013-01-26 01:34:00,
2013-01-25 20:50:00,19.8,17.9,29.92,SW,225,0.0,-999.0,92,-99.99,,,0.00,Acu-Link.com,2013-01-26 01:50:00,
2013-01-25 21:05:00,19.6,17.4,29.91,South,180,0.0,-999.0,91,-99.99,,,0.00,Acu-Link.com,2013-01-26 02:05:00,
2013-01-25 21:20:00,19.0,16.8,29.92,West,270,0.0,-999.0,91,-99.99,,,0.00,Acu-Link.com,2013-01-26 02:20:00,
2013-01-25 21:35:00,19.8,15.8,29.92,West,270,0.0,-999.0,84,-99.99,,,0.00,Acu-Link.com,2013-01-26 02:35:00,
2013-01-25 21:51:00,18.9,14.9,29.90,West,270,0.0,-999.0,84,-99.99,,,0.00,Acu-Link.com,2013-01-26 02:51:00,
2013-01-25 22:06:00,19.6,13.9,29.89,WNW,292,0.0,-999.0,78,-99.99,,,0.00,Acu-Link.com,2013-01-26 03:06:00,
2013-01-25 22:21:00,19.0,12.7,29.89,West,270,0.0,-999.0,76,-99.99,,,0.00,Acu-Link.com,2013-01-26 03:21:00,
2013-01-25 22:37:00,18.0,12.9,29.90,West,270,0.0,-999.0,80,-99.99,,,0.00,Acu-Link.com,2013-01-26 03:37:00,
2013-01-25 22:52:00,19.0,14.4,29.89,ESE,112,0.0,-999.0,82,-99.99,,,0.00,Acu-Link.com,2013-01-26 03:52:00,
2013-01-25 23:08:00,17.6,13.3,29.90,ENE,67,0.0,-999.0,83,-99.99,,,0.00,Acu-Link.com,2013-01-26 04:08:00,
2013-01-25 23:23:00,17.6,11.1,29.89,SW,225,0.0,-999.0,75,-99.99,,,0.00,Acu-Link.com,2013-01-26 04:23:00,
2013-01-25 23:38:00,17.8,9.7,29.90,SW,225,0.0,-999.0,70,-99.99,,,0.00,Acu-Link.com,2013-01-26 04:38:00,
2013-01-25 23:53:00,17.8,10.9,29.88,West,270,0.0,-999.0,74,-99.99,,,0.00,Acu-Link.com,2013-01-26 04:53:00,